| time (UTC) | temp C | wind direction | speed KPH | gust KPH | rain 1hr cm | rain 24hr cm | rain mn cm | humidity % | barometer mb |
| 20260504014720 | 12 | 66 | 0.0 | 8.0 | 0.00 | 0.00 | 0.00 | 50 | 1005.0 |
| 20260504014220 | 12 | 270 | 8.0 | 4.8 | 0.00 | 0.00 | 0.00 | 47 | 1005.0 |
| 20260504013720 | 12 | 208 | 0.0 | 8.0 | 0.00 | 0.00 | 0.00 | 51 | 1005.0 |
| 20260504013220 | 12 | 99 | 4.8 | 6.4 | 0.00 | 0.00 | 0.00 | 50 | 1005.0 |
| 20260504012719 | 12 | 306 | 6.4 | 11.3 | 0.00 | 0.00 | 0.00 | 51 | 1005.0 |
| 20260504012219 | 12 | 300 | 4.8 | 9.7 | 0.00 | 0.00 | 0.00 | 50 | 1005.0 |
| 20260504011719 | 12 | 239 | 4.8 | 4.8 | 0.00 | 0.00 | 0.00 | 48 | 1005.0 |
| 20260504011219 | 12 | 230 | 6.4 | 24.1 | 0.00 | 0.00 | 0.00 | 49 | 1005.0 |
| 20260504010720 | 11 | 348 | 0.0 | 1.6 | 0.00 | 0.00 | 0.00 | 52 | 1005.0 |
| 20260504010220 | 12 | 5 | 1.6 | 9.7 | 0.00 | 0.00 | 0.00 | 51 | 1005.0 |
| 20260504005719 | 11 | 50 | 0.0 | 4.8 | 0.00 | 0.00 | 0.00 | 55 | 1005.0 |
| 20260504005219 | 11 | 57 | 0.0 | 6.4 | 0.00 | 0.00 | 0.00 | 52 | 1005.0 |
| 20260504004719 | 12 | 90 | 8.0 | 16.1 | 0.00 | 0.00 | 0.00 | 50 | 1005.0 |
| 20260504004219 | 11 | 350 | 6.4 | 6.4 | 0.00 | 0.00 | 0.00 | 50 | 1005.0 |
| 20260504003719 | 11 | 173 | 12.9 | 8.0 | 0.00 | 0.00 | 0.00 | 52 | 1005.0 |
| 20260504003219 | 11 | 185 | 3.2 | 11.3 | 0.00 | 0.00 | 0.00 | 51 | 1005.0 |
| 20260504002719 | 11 | 68 | 6.4 | 8.0 | 0.00 | 0.00 | 0.00 | 52 | 1005.0 |
| 20260504002220 | 11 | 257 | 0.0 | 8.0 | 0.00 | 0.00 | 0.00 | 54 | 1005.0 |
| 20260504001720 | 11 | 98 | 9.7 | 11.3 | 0.00 | 0.00 | 0.00 | 52 | 1005.0 |
| 20260504001219 | 11 | 82 | 6.4 | 6.4 | 0.00 | 0.00 | 0.00 | 54 | 1005.0 |
| 20260504000720 | 11 | 134 | 9.7 | 3.2 | 0.00 | 0.00 | 0.00 | 54 | 1005.0 |
| 20260504000219 | 11 | 242 | 3.2 | 8.0 | 0.00 | 0.00 | 0.00 | 54 | 1005.0 |
| 20260503235720 | 11 | 275 | 8.0 | 9.7 | 0.00 | 0.00 | 0.00 | 55 | 1006.0 |
| 20260503235220 | 11 | 37 | 1.6 | 17.7 | 0.00 | 0.00 | 0.00 | 55 | 1006.0 |
| 20260503234719 | 11 | 225 | 3.2 | 9.7 | 0.00 | 0.00 | 0.00 | 57 | 1006.0 |
| 20260503234220 | 11 | 133 | 0.0 | 8.0 | 0.00 | 0.00 | 0.00 | 62 | 1006.0 |
| 20260503233720 | 11 | 258 | 1.6 | 8.0 | 0.00 | 0.00 | 0.00 | 59 | 1006.0 |
| 20260503233220 | 10 | 240 | 8.0 | 4.8 | 0.00 | 0.00 | 0.00 | 63 | 1006.0 |
| 20260503232719 | 10 | 354 | 8.0 | 6.4 | 0.00 | 0.00 | 0.00 | 63 | 1006.0 |
| 20260503232219 | 10 | 58 | 0.0 | 1.6 | 0.00 | 0.00 | 0.00 | 63 | 1006.0 |
| 20260503231719 | 10 | 27 | 0.0 | 8.0 | 0.00 | 0.00 | 0.00 | 64 | 1006.0 |
| 20260503231221 | 10 | 77 | 4.8 | 8.0 | 0.00 | 0.00 | 0.00 | 64 | 1006.0 |
| 20260503230719 | 10 | 210 | 6.4 | 9.7 | 0.00 | 0.00 | 0.00 | 64 | 1006.0 |
| 20260503230220 | 10 | 44 | 0.0 | 1.6 | 0.00 | 0.00 | 0.00 | 63 | 1006.0 |
| 20260503225720 | 11 | 38 | 1.6 | 8.0 | 0.00 | 0.00 | 0.00 | 60 | 1006.0 |
| 20260503225219 | 11 | 49 | 1.6 | 11.3 | 0.00 | 0.00 | 0.00 | 60 | 1006.0 |
| 20260503224721 | 11 | 22 | 3.2 | 9.7 | 0.00 | 0.00 | 0.00 | 61 | 1006.0 |
| 20260503224219 | 11 | 289 | 4.8 | 8.0 | 0.00 | 0.00 | 0.00 | 58 | 1006.0 |
| 20260503223719 | 11 | 3 | 1.6 | 16.1 | 0.00 | 0.00 | 0.00 | 58 | 1006.0 |
| 20260503223219 | 11 | 343 | 0.0 | 6.4 | 0.00 | 0.00 | 0.00 | 61 | 1006.0 |
| 20260503222720 | 11 | 50 | 3.2 | 9.7 | 0.00 | 0.00 | 0.00 | 61 | 1006.0 |
| 20260503222219 | 11 | 61 | 3.2 | 6.4 | 0.00 | 0.00 | 0.00 | 61 | 1006.0 |
| 20260503221719 | 11 | 50 | 1.6 | 14.5 | 0.00 | 0.00 | 0.00 | 61 | 1006.0 |
| 20260503221220 | 11 | 253 | 8.0 | 16.1 | 0.00 | 0.00 | 0.00 | 56 | 1006.0 |
| 20260503220719 | 11 | 309 | 6.4 | 8.0 | 0.00 | 0.00 | 0.00 | 55 | 1006.0 |
| 20260503220220 | 11 | 266 | 4.8 | 6.4 | 0.00 | 0.00 | 0.00 | 57 | 1006.0 |
| 20260503215719 | 11 | 59 | 11.3 | 14.5 | 0.00 | 0.00 | 0.00 | 56 | 1006.0 |
| 20260503215220 | 11 | 54 | 4.8 | 6.4 | 0.00 | 0.00 | 0.00 | 57 | 1006.0 |
| 20260503214719 | 11 | 137 | 8.0 | 9.7 | 0.00 | 0.00 | 0.00 | 57 | 1006.0 |
| 20260503214219 | 11 | 33 | 6.4 | 14.5 | 0.00 | 0.00 | 0.00 | 57 | 1006.0 |
| 20260503213719 | 11 | 229 | 9.7 | 17.7 | 0.00 | 0.00 | 0.00 | 57 | 1006.0 |
| 20260503213220 | 11 | 10 | 4.8 | 6.4 | 0.00 | 0.00 | 0.00 | 54 | 1006.0 |
| 20260503212719 | 12 | 298 | 8.0 | 17.7 | 0.00 | 0.00 | 0.00 | 54 | 1006.0 |
| 20260503212221 | 12 | 289 | 12.9 | 14.5 | 0.00 | 0.00 | 0.00 | 53 | 1006.0 |
| 20260503211719 | 12 | 220 | 6.4 | 12.9 | 0.00 | 0.00 | 0.00 | 54 | 1006.0 |
| 20260503211219 | 12 | 334 | 11.3 | 9.7 | 0.00 | 0.00 | 0.00 | 53 | 1006.0 |
| 20260503210720 | 12 | 78 | 1.6 | 11.3 | 0.00 | 0.00 | 0.00 | 55 | 1006.0 |
| 20260503210220 | 12 | 77 | 3.2 | 8.0 | 0.00 | 0.00 | 0.00 | 52 | 1006.0 |
| 20260503205719 | 12 | 249 | 12.9 | 8.0 | 0.00 | 0.00 | 0.00 | 48 | 1006.0 |
| 20260503205219 | 12 | 54 | 4.8 | 9.7 | 0.00 | 0.00 | 0.00 | 50 | 1006.0 |
| 20260503204719 | 12 | 227 | 14.5 | 22.5 | 0.00 | 0.00 | 0.00 | 51 | 1006.0 |
| 20260503204219 | 12 | 108 | 3.2 | 9.7 | 0.00 | 0.00 | 0.00 | 52 | 1006.0 |
| 20260503203720 | 12 | 142 | 8.0 | 12.9 | 0.00 | 0.00 | 0.00 | 54 | 1006.0 |
| 20260503203219 | 12 | 84 | 9.7 | 8.0 | 0.00 | 0.00 | 0.00 | 52 | 1006.0 |
| 20260503202719 | 12 | 245 | 6.4 | 27.4 | 0.00 | 0.00 | 0.00 | 53 | 1006.0 |
| 20260503202219 | 12 | 41 | 6.4 | 8.0 | 0.00 | 0.00 | 0.00 | 54 | 1006.0 |
| 20260503201720 | 12 | 306 | 4.8 | 17.7 | 0.00 | 0.00 | 0.00 | 54 | 1006.0 |
| 20260503201219 | 13 | 259 | 9.7 | 6.4 | 0.00 | 0.00 | 0.00 | 50 | 1006.0 |
| 20260503200721 | 13 | 262 | 4.8 | 11.3 | 0.00 | 0.00 | 0.00 | 51 | 1006.0 |
| 20260503200220 | 13 | 9 | 6.4 | 16.1 | 0.00 | 0.00 | 0.00 | 54 | 1006.0 |
| 20260503195719 | 14 | 91 | 4.8 | 20.9 | 0.00 | 0.00 | 0.00 | 48 | 1007.0 |
| 20260503195219 | 15 | 227 | 4.8 | 9.7 | 0.00 | 0.00 | 0.00 | 50 | 1007.0 |
| 20260503194720 | 13 | 340 | 3.2 | 11.3 | 0.00 | 0.00 | 0.00 | 51 | 1007.0 |
| 20260503194220 | 13 | 243 | 8.0 | 6.4 | 0.00 | 0.00 | 0.00 | 49 | 1007.0 |
| 20260503193720 | 12 | 297 | 4.8 | 14.5 | 0.00 | 0.00 | 0.00 | 52 | 1007.0 |
| 20260503193219 | 13 | 52 | 11.3 | 12.9 | 0.00 | 0.00 | 0.00 | 52 | 1007.0 |
| 20260503192720 | 13 | 58 | 4.8 | 8.0 | 0.00 | 0.00 | 0.00 | 54 | 1007.0 |
| 20260503192220 | 13 | 314 | 6.4 | 8.0 | 0.00 | 0.00 | 0.00 | 51 | 1007.0 |
| 20260503191720 | 13 | 36 | 8.0 | 12.9 | 0.00 | 0.00 | 0.00 | 53 | 1007.0 |
| 20260503191219 | 12 | 265 | 4.8 | 17.7 | 0.00 | 0.00 | 0.00 | 52 | 1007.0 |
| 20260503190719 | 12 | 32 | 6.4 | 14.5 | 0.00 | 0.00 | 0.00 | 54 | 1007.0 |
| 20260503190219 | 12 | 79 | 3.2 | 16.1 | 0.00 | 0.00 | 0.00 | 54 | 1007.0 |
| 20260503185719 | 12 | 66 | 3.2 | 11.3 | 0.00 | 0.00 | 0.00 | 50 | 1008.0 |
| 20260503185219 | 12 | 336 | 1.6 | 19.3 | 0.00 | 0.00 | 0.00 | 52 | 1008.0 |
| 20260503184720 | 12 | 24 | 4.8 | 24.1 | 0.00 | 0.00 | 0.00 | 54 | 1008.0 |
| 20260503184220 | 12 | 258 | 3.2 | 4.8 | 0.00 | 0.00 | 0.00 | 51 | 1008.0 |
| 20260503183721 | 12 | 265 | 8.0 | 3.2 | 0.00 | 0.00 | 0.00 | 46 | 1008.0 |
| 20260503183222 | 12 | 341 | 4.8 | 17.7 | 0.00 | 0.00 | 0.00 | 45 | 1008.0 |
| 20260503182720 | 13 | 3 | 3.2 | 9.7 | 0.00 | 0.00 | 0.00 | 41 | 1008.0 |
| 20260503182220 | 13 | 108 | 6.4 | 8.0 | 0.00 | 0.00 | 0.00 | 40 | 1008.0 |
| 20260503181720 | 14 | 30 | 0.0 | 8.0 | 0.00 | 0.00 | 0.00 | 41 | 1008.0 |
| 20260503181221 | 13 | 272 | 9.7 | 9.7 | 0.00 | 0.00 | 0.00 | 39 | 1008.0 |
| 20260503180720 | 14 | 264 | 9.7 | 11.3 | 0.00 | 0.00 | 0.00 | 38 | 1008.0 |
| 20260503180220 | 15 | 327 | 0.0 | 8.0 | 0.00 | 0.00 | 0.00 | 37 | 1008.0 |
| 20260503175719 | 13 | 33 | 4.8 | 4.8 | 0.00 | 0.00 | 0.00 | 37 | 1009.0 |
| 20260503175220 | 13 | 322 | 6.4 | 14.5 | 0.00 | 0.00 | 0.00 | 40 | 1009.0 |
| 20260503174721 | 13 | 243 | 3.2 | 12.9 | 0.00 | 0.00 | 0.00 | 41 | 1009.0 |
| 20260503174219 | 13 | 332 | 8.0 | 11.3 | 0.00 | 0.00 | 0.00 | 42 | 1009.0 |
| 20260503173719 | 13 | 27 | 4.8 | 9.7 | 0.00 | 0.00 | 0.00 | 40 | 1009.0 |
| 20260503173221 | 12 | 293 | 3.2 | 8.0 | 0.00 | 0.00 | 0.00 | 40 | 1009.0 |
| 20260503172721 | 12 | 349 | 9.7 | 11.3 | 0.00 | 0.00 | 0.00 | 37 | 1009.0 |
| 20260503172222 | 13 | 284 | 8.0 | 9.7 | 0.00 | 0.00 | 0.00 | 37 | 1009.0 |
| 20260503171719 | 12 | 40 | 6.4 | 8.0 | 0.00 | 0.00 | 0.00 | 45 | 1009.0 |
| 20260503171219 | 12 | 45 | 4.8 | 22.5 | 0.00 | 0.00 | 0.00 | 40 | 1009.0 |
| 20260503170720 | 13 | 11 | 3.2 | 6.4 | 0.00 | 0.00 | 0.00 | 39 | 1009.0 |
| 20260503170222 | 12 | 25 | 3.2 | 0.0 | 0.00 | 0.00 | 0.00 | 48 | 1009.0 |
| 20260503150724 | 10 | 26 | 8.0 | 11.3 | 0.00 | 0.00 | 0.00 | 67 | 1010.0 |
| 20260503150221 | 10 | 257 | 9.7 | 8.0 | 0.00 | 0.00 | 0.00 | 69 | 1010.0 |
| 20260503140222 | 10 | 113 | 6.4 | 3.2 | 0.00 | 0.00 | 0.00 | 65 | 1010.0 |
| 20260503131221 | 10 | 146 | 4.8 | 4.8 | 0.00 | 0.00 | 0.00 | 60 | 1010.0 |
| 20260503130721 | 10 | 41 | 1.6 | 9.7 | 0.00 | 0.00 | 0.00 | 60 | 1010.0 |
| 20260503130220 | 11 | 72 | 4.8 | 6.4 | 0.00 | 0.00 | 0.00 | 59 | 1010.0 |
| 20260503120219 | 7 | 71 | 3.2 | 6.4 | 0.00 | 0.00 | 0.00 | 70 | 1010.0 |
| 20260503110725 | 3 | 70 | 3.2 | 3.2 | 0.00 | 0.00 | 0.00 | 83 | 1010.0 |
| 20260503110220 | 3 | 53 | 0.0 | 0.0 | 0.00 | 0.00 | 0.00 | 84 | 1010.0 |
| 20260503100222 | 1 | 68 | 0.0 | 0.0 | 0.00 | 0.00 | 0.00 | 89 | 1009.0 |
| 20260503090221 | 1 | 48 | 0.0 | 3.2 | 0.00 | 0.00 | 0.00 | 88 | 1010.0 |
| 20260503081223 | 1 | 90 | 0.0 | 3.2 | 0.00 | 0.00 | 0.00 | 87 | 1010.0 |
| 20260503080721 | 1 | 61 | 0.0 | 0.0 | 0.00 | 0.00 | 0.00 | 87 | 1010.0 |
| 20260503080221 | 1 | 70 | 0.0 | 0.0 | 0.00 | 0.00 | 0.00 | 87 | 1010.0 |
| 20260503072723 | 1 | 60 | 0.0 | 0.0 | 0.00 | 0.00 | 0.00 | 88 | 1010.0 |
| 20260503072223 | 2 | 58 | 0.0 | 1.6 | 0.00 | 0.00 | 0.00 | 87 | 1010.0 |
| 20260503071720 | 2 | 223 | 0.0 | 3.2 | 0.00 | 0.00 | 0.00 | 86 | 1010.0 |
| 20260503071220 | 2 | 69 | 1.6 | 3.2 | 0.00 | 0.00 | 0.00 | 87 | 1010.0 |
| 20260503070720 | 2 | 62 | 0.0 | 0.0 | 0.00 | 0.00 | 0.00 | 88 | 1010.0 |
| 20260503070223 | 2 | 62 | 0.0 | 0.0 | 0.00 | 0.00 | 0.00 | 86 | 1010.0 |
| 20260503060220 | 1 | 63 | 0.0 | 0.0 | 0.00 | 0.00 | 0.00 | 91 | 1010.0 |
| 20260503054720 | 2 | 62 | 1.6 | 1.6 | 0.00 | 0.00 | 0.00 | 90 | 1011.0 |
| 20260503054222 | 2 | 73 | 1.6 | 3.2 | 0.00 | 0.00 | 0.00 | 89 | 1011.0 |
| 20260503053720 | 2 | 60 | 0.0 | 0.0 | 0.00 | 0.00 | 0.00 | 89 | 1011.0 |
| 20260503053219 | 2 | 62 | 1.6 | 3.2 | 0.00 | 0.00 | 0.00 | 89 | 1011.0 |
| 20260503052720 | 2 | 89 | 3.2 | 1.6 | 0.00 | 0.00 | 0.00 | 89 | 1011.0 |
| 20260503052223 | 2 | 72 | 1.6 | 3.2 | 0.00 | 0.00 | 0.00 | 88 | 1011.0 |
| 20260503051720 | 2 | 89 | 1.6 | 3.2 | 0.00 | 0.00 | 0.00 | 88 | 1011.0 |
| 20260503051221 | 2 | 54 | 1.6 | 1.6 | 0.00 | 0.00 | 0.00 | 87 | 1011.0 |
| 20260503050723 | 2 | 66 | 0.0 | 0.0 | 0.00 | 0.00 | 0.00 | 87 | 1011.0 |
| 20260503050223 | 2 | 89 | 0.0 | 0.0 | 0.00 | 0.00 | 0.00 | 87 | 1011.0 |
| 20260503045719 | 2 | 88 | 0.0 | 0.0 | 0.00 | 0.00 | 0.00 | 87 | 1011.0 |
| 20260503045220 | 2 | 62 | 0.0 | 0.0 | 0.00 | 0.00 | 0.00 | 87 | 1011.0 |
| 20260503044719 | 2 | 60 | 0.0 | 0.0 | 0.00 | 0.00 | 0.00 | 86 | 1011.0 |
| 20260503044219 | 2 | 60 | 0.0 | 0.0 | 0.00 | 0.00 | 0.00 | 86 | 1011.0 |
| 20260503043719 | 2 | 72 | 0.0 | 0.0 | 0.00 | 0.00 | 0.00 | 85 | 1011.0 |
| 20260503043220 | 2 | 69 | 0.0 | 0.0 | 0.00 | 0.00 | 0.00 | 85 | 1011.0 |
| 20260503042720 | 2 | 61 | 0.0 | 0.0 | 0.00 | 0.00 | 0.00 | 86 | 1011.0 |
| 20260503042219 | 3 | 71 | 0.0 | 0.0 | 0.00 | 0.00 | 0.00 | 84 | 1011.0 |
| 20260503041719 | 3 | 70 | 0.0 | 0.0 | 0.00 | 0.00 | 0.00 | 85 | 1011.0 |
| 20260503041220 | 3 | 58 | 0.0 | 0.0 | 0.00 | 0.00 | 0.00 | 84 | 1011.0 |
| 20260503040721 | 3 | 60 | 0.0 | 3.2 | 0.00 | 0.00 | 0.00 | 83 | 1011.0 |
| 20260503040220 | 3 | 82 | 0.0 | 0.0 | 0.00 | 0.00 | 0.00 | 83 | 1011.0 |
| 20260503035720 | 3 | 82 | 0.0 | 0.0 | 0.00 | 0.00 | 0.00 | 82 | 1011.0 |
| 20260503035219 | 3 | 82 | 0.0 | 0.0 | 0.00 | 0.00 | 0.00 | 81 | 1011.0 |
| 20260503034720 | 3 | 77 | 3.2 | 6.4 | 0.00 | 0.00 | 0.00 | 81 | 1011.0 |
| 20260503034220 | 4 | 83 | 1.6 | 3.2 | 0.00 | 0.00 | 0.00 | 80 | 1011.0 |
| 20260503033720 | 4 | 61 | 1.6 | 3.2 | 0.00 | 0.00 | 0.00 | 81 | 1011.0 |
| 20260503033220 | 4 | 60 | 0.0 | 0.0 | 0.00 | 0.00 | 0.00 | 81 | 1011.0 |
| 20260503032720 | 4 | 58 | 1.6 | 4.8 | 0.00 | 0.00 | 0.00 | 80 | 1011.0 |
| 20260503032221 | 4 | 79 | 0.0 | 3.2 | 0.00 | 0.00 | 0.00 | 80 | 1011.0 |
| 20260503031720 | 4 | 60 | 0.0 | 3.2 | 0.00 | 0.00 | 0.00 | 79 | 1011.0 |
| 20260503031220 | 4 | 59 | 3.2 | 1.6 | 0.00 | 0.00 | 0.00 | 79 | 1011.0 |
| 20260503030719 | 4 | 67 | 0.0 | 3.2 | 0.00 | 0.00 | 0.00 | 78 | 1011.0 |
| 20260503030219 | 4 | 65 | 1.6 | 4.8 | 0.00 | 0.00 | 0.00 | 78 | 1011.0 |
| 20260503025721 | 4 | 84 | 0.0 | 1.6 | 0.00 | 0.00 | 0.00 | 78 | 1011.0 |
| 20260503025220 | 4 | 62 | 0.0 | 0.0 | 0.00 | 0.00 | 0.00 | 77 | 1011.0 |
| 20260503024721 | 4 | 72 | 0.0 | 0.0 | 0.00 | 0.00 | 0.00 | 77 | 1011.0 |
| 20260503024221 | 4 | 96 | 4.8 | 3.2 | 0.00 | 0.00 | 0.00 | 76 | 1011.0 |
| 20260503023719 | 4 | 64 | 1.6 | 3.2 | 0.00 | 0.00 | 0.00 | 75 | 1011.0 |
| 20260503023219 | 4 | 82 | 4.8 | 4.8 | 0.00 | 0.00 | 0.00 | 74 | 1011.0 |
| 20260503022721 | 4 | 61 | 0.0 | 0.0 | 0.00 | 0.00 | 0.00 | 75 | 1011.0 |
| 20260503022219 | 4 | 140 | 4.8 | 8.0 | 0.00 | 0.00 | 0.00 | 73 | 1011.0 |
| 20260503021721 | 5 | 64 | 3.2 | 8.0 | 0.00 | 0.00 | 0.00 | 72 | 1011.0 |
| 20260503021220 | 5 | 89 | 3.2 | 6.4 | 0.00 | 0.00 | 0.00 | 73 | 1011.0 |
| 20260503020719 | 5 | 210 | 1.6 | 3.2 | 0.00 | 0.00 | 0.00 | 73 | 1011.0 |
| 20260503020220 | 5 | 68 | 0.0 | 0.0 | 0.00 | 0.00 | 0.00 | 74 | 1011.0 |
| 20260503015719 | 5 | 63 | 0.0 | 0.0 | 0.00 | 0.00 | 0.00 | 73 | 1011.0 |
| 20260503015219 | 5 | 30 | 0.0 | 0.0 | 0.00 | 0.00 | 0.00 | 69 | 1011.0 |